User: anonymous   Login
Location: Unspecified
(0.0000°N, 0.0000°E)
Time: 13:50:58
(UTC+00:00)
Language:

KEPLER-O (KIPP) - Orbit

View from above orbital plane
View from above orbital plane
View from above satellite
View from above satellite

Ground track
Ground track

The orbit data is extracted from the following two-line orbital elements,

1 43157U 18008C   23265.87818603  .00043743  00000-0  13612-2 0  9992
2 43157  97.2988 317.4434 0007999 323.6197  36.4500 15.33139364313492
Epoch (UTC): 22 September 2023 21:04:35
Eccentricity: 0.0007999
inclination: 97.2988°
perigee height: 461 km
apogee height: 472 km
right ascension of ascending node: 317.4434°
argument of perigee: 323.6197°
revolutions per day: 15.33139364
mean anomaly at epoch: 36.4500°
orbit number at epoch: 31349

The dashed part of the orbit path shows where the satellite is in the earth's shadow,  

DLR